CW5456 Hansville WA US current weather conditions

sailwx.info

Wind from 183 at 1 knots gusting 2

Air temperature 10.0° C
Dewpoint 7.1° C

Last reported at 2018-Apr-26 07:05 UTC.
Time now 2018-Apr-26 07:57 UTC

Location: N 47°55' W 122°35'.
View on Google Maps.

See reports from other nearby stations

  
Tides and Currents Weather Stations Pressure Air Temp Water Temp Dewpoint Dewpoint Depression Visibility Wind Speed Wind Dir Waves Ship Positions
date/time (UTC)wind fromknots sea level pressurealtimeterstation pressurevisibilityair tempwater tempwave heightnotes
2018-Apr-26 07:05 183 1 gusting 2 10.0
2018-Apr-26 07:00 183 2 gusting 3 10.0
2018-Apr-26 06:55 183 2 gusting 3 10.0
2018-Apr-26 06:50 183 3 gusting 3 10.0
2018-Apr-26 06:45 206 2 gusting 3 10.0
2018-Apr-26 06:40 222 1 gusting 2 10.6
2018-Apr-26 06:35 222 2 gusting 2 10.6
2018-Apr-26 06:30 251 2 gusting 2 10.6
2018-Apr-26 06:25 287 2 gusting 2 10.6
2018-Apr-26 06:20 308 1 gusting 1 11.1
2018-Apr-26 06:15 308 11.1
2018-Apr-26 06:10 308 11.1
2018-Apr-26 06:05 308 0 gusting 1 11.1
2018-Apr-26 06:00 308 11.1
2018-Apr-26 05:55 308 11.1
2018-Apr-26 05:50 308 11.7
2018-Apr-26 05:45 308 0 gusting 2 12.2
2018-Apr-26 05:40 320 12.2
2018-Apr-26 05:35 319 12.2
2018-Apr-26 05:30 319 12.8
2018-Apr-26 05:25 319 12.8
2018-Apr-26 05:20 327 12.8
2018-Apr-26 05:15 327 12.8
2018-Apr-26 05:10 327 12.8
2018-Apr-26 05:05 327 12.8
2018-Apr-26 05:00 327 12.8
2018-Apr-26 04:55 327 12.8
2018-Apr-26 04:50 327 12.8
2018-Apr-26 04:45 327 12.8
2018-Apr-26 04:40 322 12.8
2018-Apr-26 04:35 327 13.3
2018-Apr-26 04:30 323 13.3
2018-Apr-26 04:25 322 1 gusting 1 13.3
2018-Apr-26 04:20 327 13.9
2018-Apr-26 04:15 327 13.9
2018-Apr-26 04:10 327 1 gusting 3 13.9
2018-Apr-26 04:05 332 13.9
2018-Apr-26 04:00 332 13.9
2018-Apr-26 03:55 332 0 gusting 4 13.3
2018-Apr-26 03:50 302 0 gusting 2 13.3
2018-Apr-26 03:45 299 13.3
2018-Apr-26 03:40 299 13.3
2018-Apr-26 03:35 300 13.3
2018-Apr-26 03:30 301 13.3
2018-Apr-26 03:25 301 13.9
2018-Apr-26 03:20 301 13.9
2018-Apr-26 03:15 301 14.4
2018-Apr-26 03:10 301 15.0
2018-Apr-26 03:05 302 1 gusting 5 15.0
2018-Apr-26 03:00 243 3 gusting 5 15.0
2018-Apr-26 02:55 245 1 gusting 5 15.0
2018-Apr-26 02:50 352 15.0
2018-Apr-26 02:45 279 1 gusting 8 15.0
2018-Apr-26 02:40 332 0 gusting 9 15.0
2018-Apr-26 02:35 296 4 gusting 11 15.6
2018-Apr-26 02:30 332 6 gusting 13 15.6
2018-Apr-26 02:25 342 9 gusting 13 15.6
2018-Apr-26 02:20 347 4 gusting 12 15.6
2018-Apr-26 02:15 323 6 gusting 12 15.6
2018-Apr-26 02:10 337 10 gusting 11 15.0
2018-Apr-26 02:05 343 4 gusting 9 15.0
2018-Apr-26 02:00 352 7 gusting 9 15.0
2018-Apr-26 01:55 305 5 gusting 8 14.4
2018-Apr-26 01:50 341 0 gusting 3 14.4
2018-Apr-26 01:45 272 14.4
2018-Apr-26 01:40 272 0 gusting 5 14.4
2018-Apr-26 01:35 272 1 gusting 5 14.4
2018-Apr-26 01:30 277 2 gusting 5 14.4
2018-Apr-26 01:25 332 14.4
2018-Apr-26 01:20 327 2 gusting 7 14.4
2018-Apr-26 01:15 337 4 gusting 7 14.4
2018-Apr-26 01:10 264 3 gusting 6 14.4
2018-Apr-26 01:05 268 14.4
2018-Apr-26 01:00 357 4 gusting 6 14.4
2018-Apr-26 00:55 343 3 gusting 6 14.4
2018-Apr-26 00:50 345 6 gusting 6 14.4
2018-Apr-26 00:45 252 2 gusting 6 14.4
2018-Apr-26 00:40 358 1 gusting 8 14.4
2018-Apr-26 00:35 249 5 gusting 8 14.4
2018-Apr-26 00:30 323 1 gusting 6 14.4
2018-Apr-26 00:25 337 3 gusting 6 14.4
2018-Apr-26 00:20 346 4 gusting 6 14.4
2018-Apr-26 00:15 327 3 gusting 9 14.4
2018-Apr-26 00:10 327 4 gusting 9 14.4
2018-Apr-26 00:05 244 8 gusting 11 14.4
2018-Apr-26 00:00 243 0 gusting 12 14.4
2018-Apr-25 23:55 337 11 gusting 13 14.4
2018-Apr-25 23:50 332 9 gusting 13 14.4
2018-Apr-25 23:45 341 9 gusting 12 13.9
2018-Apr-25 23:40 337 10 gusting 13 13.9
2018-Apr-25 23:35 341 10 gusting 13 13.9
2018-Apr-25 23:30 345 12 gusting 15 13.9
2018-Apr-25 23:25 347 10 gusting 15 13.9
2018-Apr-25 23:20 337 12 gusting 15 13.9
2018-Apr-25 23:15 341 9 gusting 13 13.3
2018-Apr-25 23:10 308 6 gusting 11 13.9
2018-Apr-25 23:05 332 7 gusting 11 13.9
2018-Apr-25 23:00 332 6 gusting 11 13.9
2018-Apr-25 22:55 332 5 gusting 11 13.3
2018-Apr-25 22:45 327 7 gusting 8 13.9
2018-Apr-25 22:40 327 4 gusting 7 13.9
2018-Apr-25 22:35 259 6 gusting 8 13.9
2018-Apr-25 22:25 275 7 gusting 12 13.3
2018-Apr-25 22:15 289 10 gusting 12 13.3
2018-Apr-25 22:10 337 10 gusting 13 13.3
2018-Apr-25 22:05 332 11 gusting 13 13.3
2018-Apr-25 22:00 337 13 gusting 13 13.3
2018-Apr-25 21:55 332 10 gusting 12 13.3
2018-Apr-25 21:45 332 8 gusting 8 13.3
2018-Apr-25 21:40 337 2 gusting 6 13.3
2018-Apr-25 21:35 346 4 gusting 7 13.3
2018-Apr-25 21:30 342 4 gusting 7 13.3
2018-Apr-25 21:25 327 4 gusting 7 13.3
2018-Apr-25 21:15 243 3 gusting 12 13.3
2018-Apr-25 21:05 337 9 gusting 13 13.3
2018-Apr-25 21:00 341 9 gusting 11 13.3
2018-Apr-25 20:55 337 7 gusting 10 13.3
2018-Apr-25 20:50 351 6 gusting 13 13.3
2018-Apr-25 20:45 337 8 gusting 13 13.3
2018-Apr-25 20:40 337 8 gusting 13 13.3
2018-Apr-25 20:35 332 11 gusting 14 13.3
2018-Apr-25 20:30 332 11 gusting 15 13.3
2018-Apr-25 20:25 332 14 gusting 15 13.3
2018-Apr-25 20:20 343 10 gusting 13 13.3
2018-Apr-25 20:15 337 9 gusting 13 12.8
2018-Apr-25 20:10 341 13 gusting 13 12.8
2018-Apr-25 20:05 337 10 gusting 11 12.8
2018-Apr-25 20:00 332 8 gusting 9 12.8
2018-Apr-25 19:55 332 7 gusting 10 12.8
2018-Apr-25 19:50 332 5 gusting 10 12.8
2018-Apr-25 19:45 337 10 gusting 10 12.8
2018-Apr-25 19:40 346 7 gusting 11 12.8
2018-Apr-25 19:35 332 9 gusting 11 12.2
2018-Apr-25 19:30 332 8 gusting 11 12.8
2018-Apr-25 19:25 337 7 gusting 11 12.8
2018-Apr-25 19:20 332 11 gusting 11 12.8
2018-Apr-25 19:15 337 8 gusting 12 12.8
2018-Apr-25 19:10 337 9 gusting 12 12.8
2018-Apr-25 19:05 337 9 gusting 12 12.8
2018-Apr-25 19:00 337 10 gusting 13 12.8
2018-Apr-25 18:55 345 10 gusting 13 12.8
2018-Apr-25 18:50 337 12 gusting 13 12.8
2018-Apr-25 18:45 337 13 gusting 13 12.2
2018-Apr-25 18:40 342 8 gusting 10 12.8
2018-Apr-25 18:35 353 7 gusting 10 12.8
2018-Apr-25 18:30 347 9 gusting 12 12.2
2018-Apr-25 18:25 337 10 gusting 13 12.2
2018-Apr-25 18:20 337 11 gusting 13 12.2
2018-Apr-25 18:15 337 11 gusting 13 12.2
2018-Apr-25 18:10 341 10 gusting 13 12.2
2018-Apr-25 18:05 342 11 gusting 13 12.2
2018-Apr-25 18:00 346 11 gusting 13 12.8
2018-Apr-25 17:55 345 10 gusting 13 12.2
2018-Apr-25 17:50 337 10 gusting 12 12.2
2018-Apr-25 17:45 346 9 gusting 12 12.2
2018-Apr-25 17:40 332 10 gusting 14 11.7
2018-Apr-25 17:35 317 9 gusting 14 11.7
2018-Apr-25 17:30 337 13 gusting 16 11.7
2018-Apr-25 17:25 337 13 gusting 16 11.7
2018-Apr-25 17:20 332 14 gusting 16 11.7
2018-Apr-25 17:15 337 13 gusting 16 11.7
2018-Apr-25 17:10 337 13 gusting 15 11.7
2018-Apr-25 17:05 332 11 gusting 15 11.7
2018-Apr-25 17:00 343 13 gusting 15 11.7
2018-Apr-25 16:55 345 13 gusting 16 11.7
2018-Apr-25 16:50 337 14 gusting 16 11.7
2018-Apr-25 16:45 346 13 gusting 17 11.7
2018-Apr-25 16:40 346 14 gusting 17 11.7
2018-Apr-25 16:35 337 13 gusting 17 11.7
2018-Apr-25 16:30 341 14 gusting 18 11.7
2018-Apr-25 16:25 341 14 gusting 18 11.7
2018-Apr-25 16:20 341 15 gusting 18 11.7
2018-Apr-25 16:10 345 15 gusting 17 11.1
2018-Apr-25 16:05 332 14 gusting 18 11.7
2018-Apr-25 15:55 332 13 gusting 19 11.7
2018-Apr-25 15:50 342 16 gusting 19 11.7
2018-Apr-25 15:45 337 16 gusting 17 11.7
2018-Apr-25 15:40 332 10 gusting 17 11.7
2018-Apr-25 15:35 337 13 gusting 17 11.7
2018-Apr-25 15:30 343 14 gusting 16 11.7
2018-Apr-25 15:25 345 13 gusting 15 11.7
2018-Apr-25 15:20 347 11 gusting 14 11.7
2018-Apr-25 15:15 347 13 gusting 15 11.1
2018-Apr-25 15:10 349 13 gusting 15 11.1
2018-Apr-25 15:05 341 9 gusting 11 11.1
2018-Apr-25 15:00 332 9 gusting 11 11.1
2018-Apr-25 14:55 327 7 gusting 10 11.1
2018-Apr-25 14:50 327 7 gusting 12 11.1
2018-Apr-25 14:40 258 9 gusting 13 10.6
2018-Apr-25 14:35 288 10 gusting 13 10.6
2018-Apr-25 14:30 345 8 gusting 13 10.6
2018-Apr-25 14:25 341 9 gusting 11 10.6
2018-Apr-25 14:20 290 9 gusting 13 10.6
2018-Apr-25 14:15 327 10 gusting 13 10.6
2018-Apr-25 14:10 327 7 gusting 11 10.6
2018-Apr-25 14:05 337 8 gusting 9 10.6
2018-Apr-25 14:00 239 6 gusting 9 10.6
2018-Apr-25 13:55 266 8 gusting 9 10.6
2018-Apr-25 13:50 248 6 gusting 8 10.6
2018-Apr-25 13:45 296 7 gusting 8 10.6
2018-Apr-25 13:40 288 4 gusting 9 10.6
2018-Apr-25 13:35 301 6 gusting 9 10.6
2018-Apr-25 13:30 341 7 gusting 9 10.6
2018-Apr-25 13:25 298 5 gusting 8 10.0
2018-Apr-25 13:20 269 4 gusting 6 10.0
2018-Apr-25 13:15 256 3 gusting 6 10.6
2018-Apr-25 13:10 309 3 gusting 7 10.6
2018-Apr-25 13:05 337 2 gusting 7 10.6
2018-Apr-25 13:00 345 3 gusting 7 10.6
2018-Apr-25 12:55 010 1 gusting 7 10.0
2018-Apr-25 12:50 011 3 gusting 4 10.0
2018-Apr-25 12:45 332 1 gusting 6 10.0
2018-Apr-25 12:40 327 3 gusting 7 10.0
2018-Apr-25 12:35 337 4 gusting 7 10.0
2018-Apr-25 12:30 347 3 gusting 8 10.0
2018-Apr-25 12:25 345 6 gusting 8 10.0
2018-Apr-25 12:20 305 3 gusting 7 10.0
2018-Apr-25 12:15 301 1 gusting 8 10.6
2018-Apr-25 12:10 332 5 gusting 8 10.6
2018-Apr-25 12:05 332 4 gusting 9 10.6
2018-Apr-25 12:00 268 6 gusting 9 10.0
2018-Apr-25 11:55 296 5 gusting 7 10.0
2018-Apr-25 11:50 303 3 gusting 7 10.0
2018-Apr-25 11:45 341 4 gusting 6 10.0
2018-Apr-25 11:40 332 3 gusting 8 9.4
2018-Apr-25 11:35 251 6 gusting 8 9.4
2018-Apr-25 11:30 297 9.4
2018-Apr-25 11:25 257 6 gusting 7 9.4
2018-Apr-25 11:20 301 2 gusting 5 9.4
2018-Apr-25 11:15 337 1 gusting 4 9.4
2018-Apr-25 11:10 337 2 gusting 3 8.9
2018-Apr-25 11:05 041 8.9
2018-Apr-25 11:00 041 8.9
2018-Apr-25 10:55 024 2 gusting 5 8.9
2018-Apr-25 10:50 031 2 gusting 3 8.9
2018-Apr-25 10:45 341 9.4
2018-Apr-25 10:40 337 3 gusting 8 9.4
2018-Apr-25 10:35 274 3 gusting 8 10.0
2018-Apr-25 10:30 319 4 gusting 5 9.4
2018-Apr-25 10:25 010 9.4
2018-Apr-25 10:20 009 1 gusting 5 9.4
2018-Apr-25 10:15 348 1 gusting 4 10.0
2018-Apr-25 10:10 347 2 gusting 3 10.0
2018-Apr-25 10:05 346 2 gusting 3 10.0
2018-Apr-25 10:00 347 0 gusting 2 10.6
2018-Apr-25 09:55 347 1 gusting 2 10.6
2018-Apr-25 09:50 347 0 gusting 3 10.6
2018-Apr-25 09:45 346 2 gusting 4 10.6
2018-Apr-25 09:40 287 1 gusting 4 10.0
2018-Apr-25 09:35 347 1 gusting 3 10.0
2018-Apr-25 09:30 274 2 gusting 2 10.0
2018-Apr-25 09:25 274 0 gusting 2 10.0
2018-Apr-25 09:20 274 10.0
2018-Apr-25 09:15 274 0 gusting 3 10.0
2018-Apr-25 09:10 276 2 gusting 3 10.0
2018-Apr-25 09:05 292 10.0
2018-Apr-25 09:00 292 10.0
2018-Apr-25 08:55 292 10.0
2018-Apr-25 08:50 292 10.0
2018-Apr-25 08:45 292 10.6
2018-Apr-25 08:40 292 0 gusting 2 10.6
2018-Apr-25 08:35 292 1 gusting 3 10.6
2018-Apr-25 08:30 292 0 gusting 3 10.6
2018-Apr-25 08:25 292 0 gusting 2 10.6
2018-Apr-25 08:20 292 0 gusting 2 10.6
2018-Apr-25 08:15 292 10.6
2018-Apr-25 08:10 292 11.1
2018-Apr-25 08:05 293 0 gusting 4 11.1
2018-Apr-25 08:00 308 0 gusting 4 11.7
2018-Apr-25 07:55 332 2 gusting 4 11.1
2018-Apr-25 07:50 354 1 gusting 3 11.1
2018-Apr-25 07:45 260 1 gusting 2 10.6
2018-Apr-25 07:40 260 1 gusting 4 11.1
2018-Apr-25 07:35 258 1 gusting 6 11.1
2018-Apr-25 07:30 260 4 gusting 6 11.1
2018-Apr-25 07:25 254 5 gusting 5 10.6
2018-Apr-25 07:20 271 1 gusting 3 11.1
2018-Apr-25 07:15 272 2 gusting 3 11.1
2018-Apr-25 07:10 274 1 gusting 3 11.7
2018-Apr-25 07:05 274 2 gusting 4 11.7
2018-Apr-25 07:00 275 2 gusting 6 12.2
2018-Apr-25 06:55 291 3 gusting 10 12.2
2018-Apr-25 06:50 284 5 gusting 11 12.8
2018-Apr-25 06:45 341 9 gusting 11 12.8
2018-Apr-25 06:40 337 7 gusting 9 12.8
2018-Apr-25 06:35 343 7 gusting 9 12.8
2018-Apr-25 06:30 327 5 gusting 9 12.8
2018-Apr-25 06:25 332 6 gusting 8 12.8
2018-Apr-25 06:20 337 2 gusting 9 12.2
2018-Apr-25 06:15 337 5 gusting 9 12.8
2018-Apr-25 06:10 359 6 gusting 9 12.8
2018-Apr-25 06:05 354 6 gusting 11 12.2
2018-Apr-25 06:00 351 7 gusting 11 12.8
2018-Apr-25 05:55 337 6 gusting 10 12.2
2018-Apr-25 05:50 004 3 gusting 9 12.2
2018-Apr-25 05:45 337 8 gusting 9 12.2
2018-Apr-25 05:40 302 5 gusting 8 12.8
2018-Apr-25 05:35 327 4 gusting 12 12.8
2018-Apr-25 05:30 332 8 gusting 15 13.3
2018-Apr-25 05:20 327 11 gusting 16 13.3
2018-Apr-25 05:15 337 8 gusting 15 13.9
2018-Apr-25 05:05 284 7 gusting 15 13.9
2018-Apr-25 05:00 327 9 gusting 15 13.9
2018-Apr-25 04:55 347 11 gusting 14 13.3
2018-Apr-25 04:50 337 7 gusting 10 12.8
2018-Apr-25 04:45 337 8 gusting 8 12.2
2018-Apr-25 04:35 276 2 gusting 6 11.7
2018-Apr-25 04:30 256 0 gusting 6 12.2
2018-Apr-25 04:25 285 6 gusting 6 12.2
2018-Apr-25 04:20 337 2 gusting 6 12.2
2018-Apr-25 04:15 268 3 gusting 6 11.7
2018-Apr-25 04:05 292 11.7
2018-Apr-25 04:00 327 2 gusting 6 11.7
2018-Apr-25 03:50 327 2 gusting 5 11.7
2018-Apr-25 03:45 270 4 gusting 5 11.7
2018-Apr-25 03:40 282 4 gusting 7 11.7
2018-Apr-25 03:35 243 3 gusting 7 11.7
2018-Apr-25 03:30 231 11.7
2018-Apr-25 03:25 230 0 gusting 5 12.2
2018-Apr-25 03:20 290 0 gusting 1 12.2
2018-Apr-25 03:15 289 12.2
2018-Apr-25 03:10 291 12.2
2018-Apr-25 03:05 290 2 gusting 6 12.8
2018-Apr-25 03:00 270 2 gusting 6 12.8
2018-Apr-25 02:55 327 3 gusting 6 12.8
2018-Apr-25 02:50 345 3 gusting 6 13.3
2018-Apr-25 02:45 353 4 gusting 7 13.3
2018-Apr-25 02:40 337 4 gusting 7 13.3
2018-Apr-25 02:35 337 5 gusting 8 13.3
2018-Apr-25 02:30 308 4 gusting 8 13.3
2018-Apr-25 02:25 301 5 gusting 8 13.3
2018-Apr-25 02:20 332 4 gusting 9 13.3
2018-Apr-25 02:15 332 5 gusting 10 13.3
2018-Apr-25 02:10 343 7 gusting 10 13.3
2018-Apr-25 02:05 327 8 gusting 10 13.3
2018-Apr-25 02:00 261 6 gusting 10 13.3
2018-Apr-25 01:55 327 5 gusting 10 13.3
2018-Apr-25 01:50 305 3 gusting 13 13.9
2018-Apr-25 01:45 268 7 gusting 13 13.9
2018-Apr-25 01:40 276 12 gusting 12 13.9
2018-Apr-25 01:35 284 9 gusting 11 13.9
2018-Apr-25 01:30 285 6 gusting 9 13.9
2018-Apr-25 01:25 226 6 gusting 9 13.9
2018-Apr-25 01:20 253 6 gusting 9 13.9
2018-Apr-25 01:15 262 1 gusting 7 13.9
2018-Apr-25 01:10 261 4 gusting 7 13.9
2018-Apr-25 01:05 310 4 gusting 10 13.9
2018-Apr-25 00:55 232 6 gusting 7 13.3
2018-Apr-25 00:50 260 13.3
2018-Apr-25 00:45 258 13.3
2018-Apr-25 00:40 280 2 gusting 6 13.9
2018-Apr-25 00:35 266 4 gusting 7 13.9
2018-Apr-25 00:30 243 2 gusting 7 13.9
2018-Apr-25 00:25 245 5 gusting 10 13.9
2018-Apr-25 00:20 224 6 gusting 11 13.9
2018-Apr-25 00:10 246 5 gusting 6 13.9
2018-Apr-25 00:05 292 0 gusting 4 13.9
2018-Apr-24 23:55 232 0 gusting 6 13.9
2018-Apr-24 23:50 243 2 gusting 6 13.9
2018-Apr-24 23:45 284 4 gusting 7 13.9
2018-Apr-24 23:35 249 3 gusting 10 13.3
2018-Apr-24 23:30 262 9 gusting 10 13.3
2018-Apr-24 23:25 258 5 gusting 7 13.9
2018-Apr-24 23:15 234 1 gusting 6 13.3
2018-Apr-24 23:10 256 1 gusting 8 13.3
2018-Apr-24 23:00 210 6 gusting 7 13.3
2018-Apr-24 22:55 224 0 gusting 7 13.3
2018-Apr-24 22:50 249 6 gusting 9 13.3
2018-Apr-24 22:45 292 5 gusting 9 13.3
2018-Apr-24 22:40 245 1 gusting 12 13.3
2018-Apr-24 22:35 229 1 gusting 13 13.3
2018-Apr-24 22:25 273 9 gusting 14 13.3
2018-Apr-24 22:20 269 9 gusting 13 12.8
2018-Apr-24 22:15 260 6 gusting 13 13.3
2018-Apr-24 22:10 300 9 gusting 12 13.3
2018-Apr-24 22:05 243 2 gusting 7 13.3
2018-Apr-24 22:00 238 5 gusting 7 13.3
2018-Apr-24 21:55 220 4 gusting 6 13.3
2018-Apr-24 21:50 238 5 gusting 6 13.3
2018-Apr-24 21:45 223 6 gusting 9 13.3
2018-Apr-24 21:40 239 3 gusting 9 13.3
2018-Apr-24 21:35 304 6 gusting 9 13.3
2018-Apr-24 21:30 303 4 gusting 10 13.3
2018-Apr-24 21:25 285 6 gusting 10 13.3
2018-Apr-24 21:20 244 6 gusting 7 13.3
2018-Apr-24 21:15 258 0 gusting 6 13.3
2018-Apr-24 21:10 257 2 gusting 6 13.3
2018-Apr-24 21:05 243 3 gusting 6 13.3
2018-Apr-24 21:00 224 0 gusting 6 13.3
2018-Apr-24 20:55 243 0 gusting 7 12.8
2018-Apr-24 20:50 345 4 gusting 8 12.8
2018-Apr-24 20:45 231 6 gusting 8 12.8
2018-Apr-24 20:40 302 12.8
2018-Apr-24 20:35 269 0 gusting 6 12.8
2018-Apr-24 20:30 337 3 gusting 6 12.8
2018-Apr-24 20:25 241 2 gusting 7 12.2
2018-Apr-24 20:20 300 2 gusting 7 12.2
2018-Apr-24 20:15 332 6 gusting 8 12.2
2018-Apr-24 20:10 297 6 gusting 8 12.2
2018-Apr-24 20:05 302 3 gusting 9 12.2
2018-Apr-24 20:00 280 4 gusting 9 12.2
2018-Apr-24 19:55 241 2 gusting 10 12.2
2018-Apr-24 19:50 230 2 gusting 10 12.2
2018-Apr-24 19:45 261 4 gusting 11 11.7
2018-Apr-24 19:40 293 8 gusting 13 11.7
2018-Apr-24 19:35 258 9 gusting 14 11.7
2018-Apr-24 19:30 327 11 gusting 15 11.7
2018-Apr-24 19:25 229 9 gusting 15 11.7
2018-Apr-24 19:20 327 13 gusting 15 11.7
2018-Apr-24 19:15 276 12 gusting 15 11.7
2018-Apr-24 19:10 327 15 gusting 15 11.7
2018-Apr-24 19:05 260 10 gusting 11 11.7
2018-Apr-24 19:00 235 6 gusting 10 11.7
2018-Apr-24 18:55 327 7 gusting 10 11.7
2018-Apr-24 18:50 287 8 gusting 9 11.7
2018-Apr-24 18:45 245 6 gusting 8 11.7
2018-Apr-24 18:40 287 6 gusting 8 11.1
2018-Apr-24 18:35 276 6 gusting 9 11.1
2018-Apr-24 18:30 281 8 gusting 9 11.1
2018-Apr-24 18:25 332 6 gusting 8 11.1
2018-Apr-24 18:20 332 5 gusting 7 11.1
2018-Apr-24 18:15 297 5 gusting 7 11.1
2018-Apr-24 18:10 327 5 gusting 7 11.1
2018-Apr-24 18:05 290 7 gusting 7 11.7
2018-Apr-24 18:00 337 6 gusting 7 11.7
2018-Apr-24 17:55 350 2 gusting 3 11.7
2018-Apr-24 17:50 337 1 gusting 4 11.7
2018-Apr-24 17:45 332 2 gusting 4 11.7
2018-Apr-24 17:40 337 2 gusting 3 11.7
2018-Apr-24 17:35 337 0 gusting 3 11.1
2018-Apr-24 17:30 337 0 gusting 3 11.1
2018-Apr-24 17:25 354 0 gusting 3 11.1
2018-Apr-24 17:20 355 2 gusting 3 11.1
2018-Apr-24 17:15 356 1 gusting 2 11.1
2018-Apr-24 17:10 358 0 gusting 2 11.1
2018-Apr-24 17:05 354 1 gusting 2 11.1
2018-Apr-24 17:00 355 11.1
2018-Apr-24 16:55 355 0 gusting 3 11.1
2018-Apr-24 16:50 355 2 gusting 4 11.1
2018-Apr-24 16:45 355 2 gusting 4 10.6
2018-Apr-24 16:40 354 3 gusting 4 10.6
2018-Apr-24 16:35 354 3 gusting 6 11.1
2018-Apr-24 16:30 354 2 gusting 6 10.6
2018-Apr-24 16:25 347 2 gusting 4 10.6
2018-Apr-24 16:20 345 2 gusting 4 10.0
2018-Apr-24 16:15 345 2 gusting 4 10.0
2018-Apr-24 16:10 345 2 gusting 4 10.0
2018-Apr-24 16:05 346 3 gusting 4 10.0
2018-Apr-24 16:00 346 3 gusting 6 10.0
2018-Apr-24 15:55 347 4 gusting 6 10.0
2018-Apr-24 15:50 351 4 gusting 6 10.0
2018-Apr-24 15:45 332 4 gusting 6 9.4
2018-Apr-24 15:40 332 5 gusting 7 9.4
2018-Apr-24 15:35 332 3 gusting 7 9.4
2018-Apr-24 15:30 289 5 gusting 7 9.4
2018-Apr-24 15:25 327 3 gusting 7 9.4
2018-Apr-24 15:20 332 3 gusting 7 8.9
2018-Apr-24 15:15 332 5 gusting 7 8.9
2018-Apr-24 15:10 332 5 gusting 7 8.9
2018-Apr-24 15:05 332 5 gusting 7 8.9
2018-Apr-24 15:00 341 6 gusting 6 8.9
2018-Apr-24 14:55 310 5 gusting 6 8.9
2018-Apr-24 14:50 327 4 gusting 6 8.9
2018-Apr-24 14:45 327 4 gusting 6 8.9
2018-Apr-24 14:40 332 4 gusting 5 8.9
2018-Apr-24 14:35 307 4 gusting 5 8.9
2018-Apr-24 14:30 305 2 gusting 8 8.9
2018-Apr-24 14:25 305 4 gusting 8 8.9
2018-Apr-24 14:20 272 7 gusting 7 8.9
2018-Apr-24 14:15 299 6 gusting 6 8.3
2018-Apr-24 14:10 327 2 gusting 6 8.3
2018-Apr-24 14:05 327 3 gusting 5 7.8
2018-Apr-24 14:00 248 3 gusting 5 7.8
2018-Apr-24 13:50 231 2 gusting 3 7.2
2018-Apr-24 13:45 226 6.7
2018-Apr-24 13:40 226 6.7
2018-Apr-24 13:35 168 6.7
2018-Apr-24 13:30 168 6.1
2018-Apr-24 13:25 166 6.1
2018-Apr-24 13:20 167 6.1
2018-Apr-24 13:15 166 6.1
2018-Apr-24 13:10 166 6.1
2018-Apr-24 13:05 166 6.1
2018-Apr-24 13:00 166 6.1
2018-Apr-24 12:55 166 6.1
2018-Apr-24 12:50 166 6.1
2018-Apr-24 12:40 166 1 gusting 2 6.1
2018-Apr-24 12:35 166 1 gusting 3 6.1
2018-Apr-24 12:30 166 2 gusting 3 6.1
2018-Apr-24 12:25 166 2 gusting 3 6.1
2018-Apr-24 12:20 166 2 gusting 2 6.1
2018-Apr-24 12:15 166 1 gusting 2 6.1
2018-Apr-24 12:05 166 1 gusting 1 6.1
2018-Apr-24 12:00 166 0 gusting 1 6.1
2018-Apr-24 11:55 166 1 gusting 1 6.7
2018-Apr-24 11:50 166 6.7
2018-Apr-24 11:45 166 0 gusting 1 6.7
2018-Apr-24 11:40 166 6.7
2018-Apr-24 11:30 166 6.7
2018-Apr-24 11:20 166 6.7
2018-Apr-24 11:15 166 6.7
2018-Apr-24 11:10 166 6.7
2018-Apr-24 11:05 166 6.7
2018-Apr-24 11:00 166 6.7
2018-Apr-24 10:55 166 1 gusting 2 6.7
2018-Apr-24 10:50 166 1 gusting 3 6.7
2018-Apr-24 10:45 166 1 gusting 3 6.7
2018-Apr-24 10:40 177 3 gusting 3 6.7
2018-Apr-24 10:35 177 2 gusting 3 6.7
2018-Apr-24 10:30 200 2 gusting 2 6.7
2018-Apr-24 10:25 262 1 gusting 2 6.7
2018-Apr-24 10:20 262 2 gusting 2 6.7
2018-Apr-24 10:15 262 1 gusting 2 7.2
2018-Apr-24 10:10 270 1 gusting 1 7.2
2018-Apr-24 10:05 270 1 gusting 1 7.2
2018-Apr-24 10:00 270 1 gusting 1 7.2
2018-Apr-24 09:55 270 7.2
2018-Apr-24 09:50 270 7.2
2018-Apr-24 09:45 270 7.2
2018-Apr-24 09:40 270 7.2
2018-Apr-24 09:35 270 7.2
2018-Apr-24 09:30 270 7.8
2018-Apr-24 09:25 270 7.8
2018-Apr-24 09:20 270 7.8
2018-Apr-24 09:15 270 7.8
2018-Apr-24 09:10 270 7.8
2018-Apr-24 09:05 270 8.3
2018-Apr-24 09:00 270 8.3
2018-Apr-24 08:55 270 8.3
2018-Apr-24 08:50 270 8.3
2018-Apr-24 08:45 270 8.3
2018-Apr-24 08:40 274 8.3
2018-Apr-24 08:35 274 7.8
2018-Apr-24 08:30 274 7.8
2018-Apr-24 08:25 275 7.8
2018-Apr-24 08:20 275 7.8
2018-Apr-24 08:15 275 0 gusting 2 7.8
2018-Apr-24 08:10 276 7.8
2018-Apr-24 08:05 276 8.3
2018-Apr-24 08:00 276 8.3
2018-Apr-24 07:55 276 8.3
2018-Apr-24 07:50 276 8.3
2018-Apr-24 07:45 279 8.9
2018-Apr-24 07:40 279 8.9
2018-Apr-24 07:35 279 9.4
2018-Apr-24 07:30 278 9.4
2018-Apr-24 07:25 274 2 gusting 4 9.4
2018-Apr-24 07:20 264 4 gusting 4 10.0
2018-Apr-24 07:15 327 1 gusting 3 9.4
2018-Apr-24 07:10 320 2 gusting 3 9.4
2018-Apr-24 07:05 297 1 gusting 3 9.4